Regional Weather Roundup
Issued by NWS Jackson, KY

Home | Current Version | Previous Version | Text Only | Print | Product List | Glossary Off
Versions: 1 2 3 4 5 6 7 8 9 10 11 12 13 14 15 16 17 18 19 20 21 22 23 24 25 26 27 28 29 30 31 32 33 34 35 36 37 38 39 40 41 42 43 44 45 46 47 48 49 50

713
ASUS43 KJKL 260510
RWRJKL

EAST KENTUCKY HOURLY WEATHER ROUNDUP
NATIONAL WEATHER SERVICE JACKSON KY
100 AM EDT THU MAY 26 2016

NOTE: "FAIR" INDICATES FEW OR NO CLOUDS BELOW 12,000 FEET WITH
NO SIGNIFICANT WEATHER AND/OR OBSTRUCTIONS TO VISIBILITY.

* THESE REPORTS ARE NOT UNDER NWS QUALITY CONTROL AND MAY NOT
  REPORT WEATHER SUCH AS PRECIPITATION AND FOG.

KYZ079-080-083-085-087-088-110-112-115-119-120-260600
...EASTERN KENTUCKY...

CITY           SKY/WX    TMP DP  RH WIND       PRES   REMARKS
JACKSON        CLOUDY    71  59  65 S3        30.12F
LONDON         CLOUDY    69  61  75 SE3       30.09F
SOMERSET*      PTCLDY    68  63  83 CALM      30.10R
MONTICELLO*    PTCLDY    67  64  90 W12       30.12R
WILLIAMSBURG*  CLOUDY    66  57  72 SE7       30.10S
MIDDLESBORO*   CLEAR     65  62  92 CALM      30.13F
HARLAN APT*    MOCLDY    64  59  82 CALM      30.15F
HAZARD APT*    CLOUDY    70  61  73 CALM      30.12
BLACK MTN*       N/A     63  57  82 S5          N/A
PIKE CO APT*   CLOUDY    73  56  56 S3        30.14S
BIG SANDY APT* CLOUDY    69  61  76 CALM      30.13F
MOREHEAD APT*  CLOUDY    68  63  83 CALM      30.12S
ASHLAND*       CLOUDY    66  63  88 CALM      30.08S
$$

KYZ035-036-041-042-044-050-067-078-099-260600
...CENTRAL KENTUCKY...

CITY           SKY/WX    TMP DP  RH WIND       PRES   REMARKS
MT STERLING*   MOCLDY    68  63  83 S3        30.10F
FLEMING/MASON* CLOUDY   N/A N/A N/A CALM      30.10F
DANVILLE*      CLOUDY    64  61  88 CALM      30.11R
RICHMOND*      CLOUDY    68  61  77 E3        30.07F
LEXINGTON      PTCLDY    66  62  87 SW5       30.09R
FRANKFORT      CLOUDY    67  61  81 S3        30.07R
LOUISVILLE     CLOUDY    71  61  70 S7        30.07R
LEBANON*         N/A     66  64  94 CALM      30.10R
GLASGOW*       CLOUDY    64  64 100 SW5       30.09R
BOWLING GREEN  CLOUDY    67  64  90 SW5       30.08S
$$

KYZ091>093-OHZ055-061-077-WVZ005-015-034-035-042-260600
...SOUTHERN OHIO/WEST VIRGINIA...

CITY           SKY/WX    TMP DP  RH WIND       PRES   REMARKS
COLUMBUS       CLOUDY    70  61  73 S5        30.06F
DAYTON         MOCLDY    71  63  75 SW9       30.06S
WILMINGTON     PTCLDY    66  63  90 S8        30.07F
HUNTINGTON     CLOUDY    70  62  76 CALM      30.10F
CHARLESTON       N/A     65  62  90 CALM      30.12F
PINEVILLE*     CLOUDY    64  59  85 MISG      30.22F
BECKLEY          N/A     65  53  65 S7        30.20F
BLUEFIELD        N/A     64  53  67 SW5       30.24F
LOGAN CO APT*    N/A     70  59  68 CALM      30.15S
$$

VAZ002-007-008-TNZ017-027-036-066-071-260600
...SOUTHWEST VIRGINIA/EAST TENNESSEE...

CITY           SKY/WX    TMP DP  RH WIND       PRES   REMARKS
WISE*          CLOUDY    68  50  52 S5        30.22F
JONESVILLE*      N/A     66  61  82 CALM      30.17F
ABINGDON*      CLOUDY    69  62  78 E3        30.21F
BRISTOL        MOCLDY    67  63  87 CALM      30.18F
SEVIERVILLE*   CLEAR     64  61  88 CALM      30.13F
KNOXVILLE      PTCLDY    70  60  70 CALM      30.12F
OAK RIDGE      PTCLDY    67  62  84 CALM      30.12F
CROSSVILLE     CLEAR     64  57  78 W7        30.16R
NASHVILLE      CLOUDY    67  64  90 CALM      30.10S
$$

...KEY TO REMARKS...
VSB - VISIBILITY IN MILES
WCI - WIND CHILL INDEX
HX  - HEAT INDEX

$$




USA.gov is the U.S. government's official web portal to all federal, state and local government web resources and services.